Starlink 4141

operational
NORAD ID: 53138 Int'l Des: 2022-083 Owner: SPXS Country: US Constellation: starlink
LEOCIRCULAR

Starlink 4141について

説明を読み込み中...

リアルタイム位置

3D地球を読み込み中...

次回通過

高度履歴

Altitude vs Time

uPlot chart will show altitude changes over time

軌道要素

1 53138U 22083G 26037.13935808 .00003287 00000-0 22447-3 0 9992
2 53138 53.2177 310.9368 0001720 63.9156 296.2013 15.08848080197290
Epoch: Feb 6, 2026 • Age: 6 hours

現在のステータス

高度 540.1 km
速度 7.59 km/s
衛星直下点 10.51°N, 147.28°W
打ち上げ日 Jul 17, 2022
運用期間 3.5 years
タイプ internet

技術仕様

分類 Payload
質量 297.00 kg
乾燥質量 275.00 kg
総質量 297.00 kg
長さ 0.20 m
直径 2.80 m
スパン 9.00 m
形状 Box + pan
製造者 SPXS
バスタイプ Starlink
フェーズステータス In Orbit
所有者/国 SPXS/US

大規模コンステレーション

Loading constellations...